This demonstration page uses our WeatherBlox Daily Observations layout. Learn more.

Left ArrowRight Arrow

Hourly Observations for March 5, 2019

Temp ( °F °C ) Dew Point ( °F °C ) Humidity (%) Winds ( mph kmh ) Pressure ( in mb ) Visibility ( mi km ) Precip ( " mm )
12:51 am 00:51 Clear 44 6.7 31 -0.6 60 60 ESE 3 6 30.00 1016 10 16 N/A
1:51 am 01:51 Clear 40 4.4 30 -1.1 68 68 N N/A 30.01 1016 10 16 N/A
2:51 am 02:51 Clear 39 3.9 30 -1.1 70 70 SE 5 7 30.01 1016 10 16 N/A
3:51 am 03:51 Clear 37 2.8 29 -1.7 73 73 N N/A 30.01 1016 10 16 N/A
4:51 am 04:51 Clear 37 2.8 30 -1.1 76 76 N N/A 30.02 1017 10 16 N/A
5:51 am 05:51 Clear 37 2.8 29 -1.7 73 73 S 5 7 30.04 1017 10 16 N/A
6:51 am 06:51 Sunny 36 2.2 29 -1.7 76 76 SE 5 7 30.08 1019 10 16 N/A
7:51 am 07:51 Sunny 45 7.2 32 undefined 61 61 N N/A 30.08 1019 10 16 N/A
8:51 am 08:51 Sunny 55 12.8 31 -0.6 40 40 ESE 15 24 30.08 1019 10 16 N/A
9:51 am 09:51 Sunny 61 16.1 30 -1.1 31 31 ESE 13 20 30.08 1019 10 16 N/A
10:51 am 10:51 Sunny 64 17.8 31 -0.6 29 29 ESE 7 11 30.08 1019 10 16 N/A
11:51 am 11:51 Sunny 68 20 28 -2.2 22 22 SE 8 13 30.04 1017 10 16 N/A
12:51 pm 12:51 Sunny 71 21.7 22 -5.6 16 16 SE 10 17 30.00 1016 10 16 N/A
1:51 pm 13:51 Sunny 74 23.3 20 -6.7 13 13 VRB 6 9 29.96 1015 10 16 N/A
2:51 pm 14:51 Sunny 76 24.4 21 -6.1 13 13 SSE 7 11 29.94 1014 10 16 N/A
3:51 pm 15:51 Sunny 77 25 19 -7.2 11 11 SSW 7 11 29.93 1014 10 16 N/A
4:51 pm 16:51 Sunny 78 25.6 12 -11.1 8 8 SSE 9 15 29.92 1013 10 16 N/A
5:51 pm 17:51 Sunny 75 23.9 12 -11.1 9 9 S 3 6 29.93 1014 10 16 N/A
6:51 pm 18:51 Clear 64 17.8 19 -7.2 18 18 E 5 7 29.95 1014 10 16 N/A
7:51 pm 19:51 Clear 66 18.9 20 -6.7 17 17 E 8 13 29.95 1014 10 16 N/A
8:51 pm 20:51 Clear 61 16.1 21 -6.1 21 21 ESE 9 15 29.96 1015 10 16 N/A
9:51 pm 21:51 Clear 59 15 21 -6.1 23 23 SE 7 11 29.97 1015 10 16 N/A
10:51 pm 22:51 Clear 55 12.8 23 -5 29 29 ESE 6 9 29.97 1015 10 16 N/A
11:51 pm 23:51 Clear 54 12.2 24 -4.4 31 31 NNW 7 11 29.97 1015 10 16 N/A

Powered by AerisWeather